QPF
0.00 0.00 0.00 0.00 0.00 0.00 0.00 0.00 0.00 0.00 0.00 0.00 0.00 0.00 0.00 0.00 0.00 0.00 0.00 0.01 0.01 0.10 0.07 0.13 0.06 0.10 0.06 0.01 0.01 0.02 0.01 0.00 0.00 0.00 0.00 0.01 0.01 0.02 0.03 0.03 0.02 0.02 0.03
0.00 0.00 0.00 0.00 0.00 0.00 0.00 0.00 0.00 0.00 0.00 0.00 0.00 0.00 0.00 0.00 0.00 0.00 0.00 0.00 0.00 0.01 0.02 0.07 0.03 0.17 0.10 0.08 0.01 0.01 0.03 0.01 0.00 0.00 0.00 0.00 0.01 0.03 0.04 0.06 0.03 0.01 0.03
0.00 0.00 0.00 0.00 0.00 0.00 0.00 0.00 0.00 0.00 0.00 0.00 0.00 0.00 0.00 0.00 0.00 0.00 0.00 0.00 0.00 0.00 0.01 0.02 0.00 0.02 0.02 0.02 0.00 0.00 0.01 0.01 0.01 0.00 0.00 0.00 0.00 0.01 0.00 0.00 0.00 0.00 0.00
0.00 0.00 0.00 0.00 0.00 0.00 0.00 0.00 0.00 0.00 0.00 0.00 0.00 0.00 0.00 0.00 0.00 0.00 0.00 0.00 0.00 0.00 0.00 0.01 0.00 0.00 0.00 0.01 0.00 0.00 0.00 0.00 0.01 0.00 0.00 0.00 0.00 0.00 0.00 0.00 0.00 0.00 0.00
0.00 0.00 0.00 0.00 0.00 0.00 0.00 0.00 0.00 0.00 0.00 0.00 0.00 0.00 0.00 0.00 0.00 0.00 0.00 0.00 0.00 0.00 0.00 0.01 0.00 0.00 0.00 0.00 0.00 0.00 0.01 0.02 0.02 0.00 0.00 0.00 0.00 0.00 0.00 0.00 0.00 0.00 0.00
0.00 0.00 0.00 0.00 0.00 0.00 0.00 0.00 0.00 0.00 0.00 0.00 0.00 0.00 0.00 0.00 0.00 0.00 0.00 0.00 0.00 0.00 0.00 0.00 0.00 0.00 0.00 0.00 0.00 0.00 0.00 0.02 0.02 0.02 0.00 0.00 0.00 0.00 0.00 0.00 0.00 0.00 0.00
0.00 0.00 0.00 0.00 0.00 0.00 0.00 0.00 0.00 0.00 0.00 0.00 0.00 0.00 0.00 0.00 0.00 0.00 0.00 0.00 0.00 0.00 0.00 0.01 0.00 0.00 0.00 0.00 0.00 0.00 0.01 0.00 0.00 0.00 0.00 0.00 0.00 0.00 0.00 0.00 0.00 0.00 0.00
0.00 0.00 0.00 0.00 0.00 0.00 0.00 0.00 0.00 0.00 0.00 0.00 0.00 0.00 0.00 0.00 0.00 0.00 0.00 0.00 0.00 0.00 0.00 0.01 0.01 0.01 0.00 0.00 0.00 0.00 0.00 0.00 0.00 0.00 0.00 0.00 0.00 0.00 0.00 0.01 0.01 0.00 0.00
0.00 0.00 0.00 0.00 0.00 0.00 0.00 0.00 0.00 0.00 0.00 0.00 0.00 0.00 0.00 0.00 0.00 0.00 0.00 0.00 0.00 0.00 0.00 0.00 0.01 0.01 0.00 0.01 0.02 0.00 0.00 0.00 0.00 0.00 0.00 0.00 0.00 0.00 0.01 0.04 0.01 0.02 0.01
0.00 0.00 0.00 0.00 0.00 0.00 0.00 0.00 0.00 0.00 0.00 0.00 0.00 0.00 0.01 0.01 0.02 0.05 0.04 0.01 0.01 0.00 0.00 0.00 0.00 0.00 0.00 0.01 0.01 0.01 0.00 0.00 0.00 0.00 0.00 0.00 0.00 0.00 0.00 0.03 0.07 0.07 0.02
0.00 0.00 0.00 0.00 0.00 0.00 0.00 0.00 0.00 0.00 0.00 0.00 0.00 0.00 0.01 0.02 0.05 0.07 0.07 0.04 0.01 0.01 0.01 0.01 0.00 0.00 0.00 0.00 0.01 0.01 0.00 0.00 0.00 0.00 0.00 0.00 0.00 0.00 0.00 0.01 0.04 0.08 0.06
0.00 0.00 0.00 0.00 0.00 0.00 0.00 0.00 0.00 0.00 0.00 0.00 0.00 0.00 0.00 0.00 0.01 0.00 0.01 0.01 0.00 0.01 0.03 0.02 0.01 0.00 0.00 0.00 0.00 0.00 0.00 0.00 0.00 0.00 0.00 0.00 0.01 0.02 0.02 0.02 0.03 0.05 0.08
0.00 0.00 0.00 0.00 0.00 0.00 0.00 0.00 0.00 0.00 0.00 0.00 0.00 0.01 0.00 0.00 0.00 0.00 0.00 0.00 0.00 0.00 0.01 0.02 0.02 0.03 0.03 0.01 0.00 0.00 0.00 0.00 0.00 0.00 0.00 0.00 0.01 0.02 0.05 0.07 0.06 0.04 0.05
0.00 0.00 0.00 0.00 0.00 0.00 0.00 0.00 0.00 0.00 0.00 0.00 0.01 0.00 0.00 0.00 0.00 0.00 0.00 0.00 0.00 0.00 0.00 0.01 0.01 0.02 0.02 0.01 0.00 0.00 0.00 0.01 0.00 0.00 0.00 0.00 0.00 0.02 0.06 0.07 0.07 0.05 0.04
0.01 0.01 0.00 0.00 0.00 0.00 0.00 0.00 0.00 0.00 0.00 0.00 0.00 0.00 0.00 0.00 0.00 0.00 0.00 0.00 0.00 0.01 0.01 0.03 0.03 0.01 0.03 0.04 0.05 0.08 0.07 0.03 0.03 0.05 0.03 0.01 0.04 0.08 0.07 0.07 0.08 0.08 0.08
0.02 0.02 0.01 0.00 0.00 0.00 0.00 0.00 0.00 0.00 0.00 0.00 0.01 0.01 0.00 0.00 0.00 0.00 0.00 0.00 0.00 0.00 0.01 0.04 0.06 0.08 0.11 0.11 0.09 0.10 0.10 0.11 0.13 0.18 0.14 0.10 0.11 0.13 0.14 0.12 0.14 0.14 0.13
0.02 0.02 0.01 0.01 0.00 0.00 0.00 0.00 0.00 0.00 0.00 0.01 0.01 0.01 0.00 0.00 0.00 0.00 0.00 0.00 0.00 0.00 0.00 0.02 0.05 0.07 0.08 0.07 0.09 0.12 0.13 0.10 0.08 0.13 0.12 0.13 0.15 0.15 0.16 0.16 0.16 0.12 0.10
0.01 0.00 0.00 0.00 0.01 0.03 0.02 0.00 0.00 0.00 0.00 0.00 0.01 0.01 0.00 0.00 0.00 0.00 0.00 0.00 0.00 0.00 0.00 0.00 0.00 0.01 0.01 0.01 0.02 0.03 0.02 0.01 0.04 0.06 0.06 0.02 0.07 0.11 0.10 0.12 0.11 0.08 0.05
0.00 0.00 0.01 0.00 0.02 0.02 0.01 0.00 0.00 0.00 0.00 0.00 0.00 0.00 0.02 0.00 0.00 0.00 0.00 0.00 0.00 0.00 0.00 0.00 0.00 0.00 0.00 0.00 0.01 0.01 0.01 0.01 0.01 0.02 0.05 0.06 0.04 0.06 0.08 0.03 0.03 0.02 0.02
0.00 0.00 0.00 0.00 0.00 0.00 0.01 0.00 0.00 0.00 0.00 0.00 0.00 0.02 0.04 0.01 0.00 0.00 0.00 0.00 0.00 0.00 0.00 0.00 0.00 0.00 0.00 0.00 0.00 0.00 0.00 0.00 0.00 0.02 0.02 0.03 0.03 0.02 0.02 0.03 0.02 0.02 0.01
0.00 0.00 0.00 0.00 0.00 0.00 0.00 0.00 0.00 0.00 0.00 0.00 0.04 0.05 0.02 0.00 0.00 0.00 0.00 0.00 0.00 0.00 0.00 0.00 0.00 0.00 0.00 0.00 0.00 0.00 0.00 0.00 0.00 0.00 0.00 0.00 0.00 0.00 0.00 0.01 0.00 0.00 0.00
0.00 0.00 0.00 0.00 0.00 0.00 0.01 0.01 0.00 0.00 0.00 0.02 0.05 0.09 0.05 0.01 0.00 0.00 0.00 0.00 0.01 0.01 0.00 0.00 0.00 0.00 0.00 0.00 0.00 0.00 0.00 0.00 0.00 0.00 0.00 0.00 0.00 0.00 0.00 0.00 0.00 0.00 0.00
0.00 0.00 0.00 0.00 0.00 0.01 0.00 0.02 0.00 0.00 0.00 0.00 0.01 0.05 0.02 0.02 0.00 0.00 0.00 0.01 0.05 0.05 0.02 0.00 0.00 0.00 0.00 0.00 0.00 0.00 0.00 0.00 0.00 0.00 0.00 0.00 0.00 0.00 0.00 0.00 0.00 0.00 0.00
0.00 0.00 0.00 0.00 0.00 0.01 0.01 0.01 0.00 0.00 0.00 0.00 0.00 0.01 0.00 0.00 0.00 0.00 0.00 0.00 0.01 0.05 0.03 0.00 0.00 0.00 0.00 0.00 0.02 0.00 0.00 0.00 0.00 0.00 0.00 0.00 0.00 0.00 0.00 0.00 0.00 0.00 0.00
0.00 0.00 0.00 0.00 0.00 0.00 0.00 0.00 0.00 0.00 0.00 0.00 0.00 0.00 0.00 0.00 0.00 0.00 0.00 0.00 0.01 0.02 0.01 0.02 0.01 0.00 0.00 0.00 0.01 0.02 0.00 0.00 0.00 0.00 0.00 0.00 0.00 0.00 0.00 0.00 0.00 0.00 0.00
0.00 0.00 0.00 0.00 0.00 0.00 0.00 0.00 0.00 0.00 0.00 0.00 0.00 0.00 0.00 0.00 0.00 0.00 0.00 0.00 0.00 0.01 0.01 0.01 0.01 0.01 0.01 0.01 0.03 0.02 0.01 0.00 0.00 0.00 0.00 0.00 0.00 0.00 0.00 0.00 0.00 0.00 0.00
MSLP
1014.51 1014.55 1014.55 1014.37 1014.20 1014.10 1014.06 1013.79 1013.60 1013.45 1013.28 1013.12 1012.90 1012.71 1012.52 1012.28 1012.09 1012.09 1012.08 1012.35 1012.64 1012.66 1012.52 1012.37 1012.33 1012.54 1012.35 1011.80 1012.26 1012.76 1012.96 1013.02 1012.59 1012.11 1012.35 1012.35 1012.31 1012.21 1012.07 1011.78 1011.29 1011.23 1011.36
1014.22 1014.36 1014.42 1014.21 1014.08 1014.09 1013.89 1013.58 1013.29 1013.03 1012.69 1012.54 1012.34 1012.11 1011.82 1011.56 1011.37 1011.31 1011.26 1011.18 1011.28 1011.42 1011.38 1011.48 1011.03 1011.16 1010.94 1010.86 1011.26 1011.65 1011.96 1012.01 1012.00 1011.58 1011.69 1011.72 1011.78 1011.64 1011.30 1011.31 1010.93 1010.52 1010.69
1014.40 1014.65 1014.49 1014.29 1014.08 1013.76 1013.44 1013.12 1012.86 1012.58 1012.26 1011.96 1011.74 1011.50 1011.15 1010.83 1010.64 1010.48 1010.30 1010.15 1010.07 1009.96 1009.87 1009.90 1009.64 1009.63 1009.45 1009.96 1010.32 1010.58 1010.79 1010.97 1010.95 1010.89 1010.74 1010.87 1010.89 1011.08 1010.97 1010.77 1010.28 1009.96 1010.17
1014.04 1014.13 1014.09 1013.80 1013.42 1013.12 1012.82 1012.60 1012.33 1012.09 1011.81 1011.47 1011.16 1010.84 1010.52 1010.22 1009.94 1009.74 1009.50 1009.26 1009.06 1008.91 1008.84 1008.77 1008.65 1008.62 1008.65 1008.80 1009.20 1009.41 1009.65 1009.75 1009.98 1010.06 1010.03 1010.16 1010.46 1010.44 1010.51 1010.25 1009.78 1009.85 1009.78
1013.89 1013.89 1013.61 1013.26 1013.01 1012.69 1012.28 1011.84 1011.74 1011.55 1011.23 1010.93 1010.68 1010.29 1009.87 1009.57 1009.21 1008.89 1008.72 1008.44 1008.19 1008.02 1007.93 1007.86 1007.76 1007.65 1007.67 1007.78 1007.95 1007.98 1008.35 1008.54 1008.77 1008.92 1009.12 1009.43 1009.59 1009.90 1009.61 1009.87 1008.83 1009.12 1009.31
1013.85 1013.78 1013.35 1012.97 1012.56 1012.21 1011.72 1011.24 1010.99 1010.91 1010.70 1010.44 1010.18 1009.84 1009.38 1008.80 1008.41 1008.13 1008.00 1007.71 1007.37 1007.11 1006.87 1006.71 1006.70 1006.67 1006.77 1006.88 1006.96 1006.91 1007.07 1007.41 1007.73 1007.84 1008.05 1008.24 1008.26 1008.53 1008.72 1008.78 1008.60 1008.39 1008.85
1013.45 1013.23 1012.92 1012.50 1011.99 1011.53 1011.13 1010.75 1010.43 1010.34 1010.17 1009.81 1009.52 1009.19 1008.68 1008.10 1007.65 1007.40 1007.17 1006.99 1006.57 1006.25 1006.04 1005.82 1005.63 1005.44 1005.55 1005.66 1005.85 1006.03 1006.14 1006.13 1006.19 1006.64 1006.76 1006.97 1007.24 1007.50 1008.03 1008.11 1007.83 1007.45 1007.77
1013.34 1012.98 1012.61 1012.18 1011.70 1011.08 1010.71 1010.32 1010.00 1010.01 1009.80 1009.42 1008.89 1008.40 1007.94 1007.40 1006.86 1006.60 1006.44 1006.27 1005.83 1005.41 1005.14 1004.91 1004.76 1004.39 1004.35 1004.50 1004.84 1005.06 1005.26 1005.38 1005.50 1005.50 1005.63 1005.88 1006.39 1006.53 1006.75 1007.21 1007.32 1007.22 1006.97
1012.87 1012.52 1012.07 1011.76 1011.25 1010.70 1010.27 1010.10 1009.80 1009.52 1009.39 1008.88 1008.28 1007.81 1007.35 1006.76 1006.23 1005.84 1005.69 1005.43 1004.98 1004.49 1004.22 1004.03 1003.73 1003.54 1003.37 1003.58 1004.11 1003.94 1004.17 1004.25 1004.43 1004.74 1004.89 1005.15 1005.57 1005.90 1006.02 1006.69 1006.88 1007.42 1006.53
1012.38 1011.95 1011.50 1011.19 1010.98 1010.54 1010.13 1009.99 1009.51 1009.19 1008.86 1008.45 1007.70 1007.08 1006.55 1006.15 1005.51 1005.02 1005.06 1004.69 1004.19 1003.64 1003.15 1002.89 1002.77 1002.62 1002.39 1002.63 1003.11 1003.12 1003.20 1003.11 1003.53 1003.82 1004.24 1004.42 1004.80 1005.00 1005.16 1005.49 1005.63 1006.00 1005.89
1011.77 1011.50 1011.13 1010.69 1010.55 1010.40 1009.82 1009.65 1009.27 1008.72 1008.40 1007.92 1007.21 1006.34 1005.90 1005.57 1005.05 1004.74 1004.58 1003.91 1003.78 1003.21 1002.51 1001.94 1001.59 1001.54 1001.66 1001.88 1001.99 1002.01 1001.78 1002.12 1002.44 1002.82 1003.16 1003.38 1003.66 1003.83 1004.09 1004.04 1004.32 1004.31 1004.54
1011.39 1011.00 1010.65 1010.52 1010.08 1009.90 1009.48 1009.10 1008.72 1008.31 1007.91 1007.32 1006.66 1006.03 1005.34 1004.78 1004.62 1004.51 1004.27 1003.95 1003.56 1003.11 1002.28 1001.61 1000.95 1000.78 1000.89 1001.04 1001.25 1001.02 1001.10 1001.65 1002.00 1002.37 1002.39 1002.36 1002.32 1002.27 1002.23 1002.80 1002.89 1003.36 1003.48
1010.91 1010.50 1010.24 1010.05 1009.69 1009.48 1009.10 1008.70 1008.30 1007.81 1007.44 1006.89 1006.49 1005.75 1005.16 1004.53 1004.31 1004.13 1003.85 1003.53 1003.11 1002.66 1001.73 1001.08 1000.72 1000.57 1000.52 1000.55 1000.50 1000.29 1000.75 1001.15 1001.29 1001.50 1001.26 1001.12 1001.12 1001.43 1001.65 1001.91 1001.87 1002.83 1003.20
1010.45 1010.08 1009.92 1009.73 1009.33 1008.99 1008.55 1008.20 1007.73 1007.24 1006.81 1006.61 1006.10 1005.48 1005.03 1004.68 1004.27 1003.94 1003.75 1003.29 1002.67 1001.96 1001.13 1000.53 1000.12 999.94 999.77 999.49 999.37 999.77 999.99 999.98 1000.18 1000.40 1000.44 1000.34 1000.51 1000.84 1000.70 1000.98 1001.37 1002.13 1003.02
1010.09 1009.77 1009.54 1009.33 1009.07 1008.61 1008.10 1007.62 1007.11 1006.50 1006.38 1006.23 1005.67 1005.44 1005.31 1004.62 1004.19 1004.27 1004.28 1003.62 1003.00 1001.99 1001.42 1000.13 999.49 999.33 999.05 998.93 998.82 998.73 998.95 999.28 999.58 999.58 999.46 999.44 999.70 999.95 1000.14 1000.39 1000.78 1001.64 1002.17
1009.87 1009.50 1009.30 1009.10 1008.64 1008.26 1007.70 1006.87 1006.25 1005.96 1005.64 1005.07 1005.02 1005.23 1004.75 1004.52 1004.02 1004.05 1003.98 1003.54 1002.96 1001.95 1001.42 1000.14 999.26 999.05 998.81 998.61 998.51 998.50 998.52 998.71 998.75 998.60 998.31 998.45 998.78 999.03 999.39 999.59 999.91 1000.96 1000.65
1009.74 1009.35 1009.04 1008.67 1008.28 1007.79 1007.12 1006.79 1005.94 1005.05 1004.78 1004.61 1004.19 1004.47 1004.63 1004.28 1004.04 1003.83 1003.57 1003.33 1002.38 1001.62 1001.30 1000.56 999.83 999.26 998.67 998.57 998.41 998.36 998.57 998.54 998.33 998.32 998.25 998.29 998.30 998.30 998.71 998.68 998.33 998.92 1001.08
1009.53 1009.05 1008.66 1008.16 1007.75 1007.24 1006.69 1006.23 1005.72 1005.37 1004.78 1004.11 1003.61 1003.96 1003.82 1003.90 1003.73 1003.45 1003.37 1002.76 1001.98 1001.56 1001.19 1000.63 999.94 999.82 999.34 998.89 998.62 998.69 998.84 998.81 998.74 998.45 998.30 997.89 997.80 997.72 997.95 998.88 999.07 1001.01 1000.76
1009.32 1008.84 1008.39 1007.68 1007.24 1006.72 1006.29 1005.88 1005.46 1005.00 1004.62 1004.19 1003.33 1003.39 1003.33 1003.60 1003.36 1003.23 1003.14 1002.68 1002.08 1001.64 1001.22 1001.08 1000.87 1000.73 1000.34 1000.11 999.66 999.44 999.39 999.30 999.19 998.97 998.81 998.86 998.79 999.01 999.52 1000.08 1000.69 1001.35 1001.83
1009.24 1008.77 1008.20 1007.49 1006.94 1006.47 1006.07 1005.46 1005.05 1005.01 1004.80 1004.26 1003.68 1003.45 1003.45 1003.45 1003.07 1003.08 1002.76 1002.35 1001.78 1001.74 1001.67 1001.45 1001.35 1001.19 1000.97 1000.76 1000.36 1000.25 999.98 999.81 999.76 999.79 999.72 999.75 999.91 1000.09 1000.41 1000.81 1001.30 1001.72 1002.24
1009.34 1008.70 1008.12 1007.37 1006.73 1006.31 1005.75 1005.34 1005.02 1004.81 1004.42 1004.18 1003.89 1003.42 1003.32 1003.19 1002.92 1002.92 1002.84 1002.38 1001.99 1001.71 1001.63 1001.64 1001.60 1001.50 1001.14 1000.91 1000.96 1000.97 1000.80 1000.53 1000.40 1000.47 1000.61 1000.58 1000.79 1001.26 1001.47 1001.76 1002.14 1002.55 1003.05
1009.57 1009.06 1008.46 1007.94 1007.24 1006.78 1006.21 1005.59 1005.34 1005.35 1004.75 1004.31 1004.16 1003.94 1003.74 1003.23 1003.16 1002.96 1002.67 1002.25 1001.95 1001.93 1001.85 1001.77 1001.66 1001.79 1001.80 1001.62 1001.41 1001.20 1001.12 1001.08 1000.98 1000.88 1001.19 1001.27 1001.63 1001.99 1002.34 1002.64 1002.94 1003.33 1003.64
1010.11 1009.66 1009.16 1008.72 1008.15 1007.83 1007.07 1006.73 1006.49 1006.31 1005.80 1005.35 1005.17 1004.77 1004.53 1004.12 1003.77 1003.40 1002.93 1002.60 1002.18 1002.16 1002.37 1002.24 1002.17 1001.84 1001.70 1001.66 1001.66 1001.58 1001.41 1001.41 1001.49 1001.60 1001.75 1001.80 1002.13 1002.28 1002.55 1002.88 1003.21 1003.69 1003.86
1011.07 1010.76 1010.16 1009.82 1009.34 1008.60 1008.49 1007.92 1007.81 1007.46 1007.30 1006.47 1005.57 1006.33 1006.24 1005.80 1004.94 1004.46 1003.93 1003.43 1003.12 1003.26 1003.24 1002.98 1002.91 1002.89 1002.57 1002.30 1002.24 1002.24 1002.16 1002.22 1002.14 1002.28 1002.43 1002.41 1002.43 1002.54 1002.82 1003.22 1003.52 1003.73 1004.04
1012.12 1011.77 1011.37 1010.90 1010.38 1010.04 1009.41 1009.08 1008.68 1008.51 1007.91 1006.94 1006.38 1007.35 1007.61 1006.99 1006.33 1005.84 1005.58 1005.12 1004.86 1004.92 1004.75 1004.54 1004.33 1004.25 1003.97 1003.79 1003.53 1003.26 1003.10 1002.59 1002.59 1002.54 1002.37 1002.53 1002.71 1002.90 1003.12 1003.41 1003.81 1004.15 1004.54
1013.28 1012.96 1012.63 1011.94 1011.68 1011.27 1010.68 1010.29 1009.78 1009.48 1009.14 1008.84 1008.43 1009.16 1008.55 1008.49 1007.98 1007.39 1007.07 1006.77 1006.24 1006.13 1005.99 1005.98 1005.86 1005.64 1005.10 1005.11 1005.00 1004.57 1004.30 1003.17 1002.93 1003.11 1002.58 1002.81 1002.87 1003.08 1003.21 1003.54 1003.74 1003.94 1004.21
Thickness
5749 5748 5747 5746 5744 5742 5740 5741 5741 5740 5739 5738 5738 5738 5736 5736 5736 5734 5734 5730 5725 5724 5728 5731 5734 5735 5738 5747 5743 5739 5740 5741 5745 5752 5752 5751 5750 5750 5752 5756 5762 5763 5763
5742 5739 5736 5735 5733 5730 5730 5730 5730 5730 5731 5729 5729 5729 5730 5730 5730 5726 5725 5726 5725 5722 5724 5723 5731 5735 5741 5744 5742 5739 5741 5743 5745 5748 5751 5748 5747 5750 5755 5755 5760 5766 5766
5730 5724 5722 5720 5720 5720 5720 5720 5719 5719 5719 5719 5718 5717 5719 5721 5721 5719 5718 5718 5719 5722 5724 5726 5732 5735 5742 5741 5739 5740 5743 5745 5748 5750 5753 5752 5750 5749 5751 5755 5762 5766 5766
5720 5717 5714 5714 5713 5712 5711 5709 5708 5707 5708 5708 5707 5707 5708 5709 5710 5709 5709 5709 5711 5715 5718 5722 5725 5729 5735 5738 5736 5739 5743 5746 5747 5748 5752 5751 5748 5749 5747 5750 5758 5762 5762
5710 5706 5705 5704 5703 5701 5701 5700 5698 5696 5696 5696 5694 5695 5696 5697 5699 5699 5698 5700 5703 5705 5710 5714 5718 5724 5729 5733 5734 5742 5742 5744 5746 5748 5750 5749 5749 5745 5744 5746 5760 5760 5760
5697 5693 5693 5692 5692 5691 5691 5691 5689 5686 5684 5683 5681 5681 5682 5685 5687 5688 5688 5690 5694 5698 5702 5708 5712 5716 5720 5726 5730 5738 5743 5741 5742 5747 5750 5751 5754 5755 5754 5752 5755 5759 5753
5686 5684 5682 5680 5680 5681 5680 5679 5677 5674 5672 5671 5670 5670 5671 5674 5677 5677 5678 5681 5686 5692 5695 5700 5705 5712 5716 5721 5726 5730 5735 5741 5748 5749 5751 5754 5755 5756 5752 5752 5757 5762 5760
5673 5669 5667 5666 5666 5667 5666 5665 5664 5661 5659 5659 5660 5661 5662 5665 5668 5669 5670 5672 5678 5685 5689 5693 5698 5706 5712 5716 5719 5722 5727 5735 5742 5749 5753 5757 5755 5756 5757 5753 5753 5758 5762
5660 5656 5654 5651 5652 5653 5653 5651 5650 5649 5647 5648 5651 5652 5652 5656 5659 5661 5662 5665 5671 5678 5682 5687 5693 5700 5708 5709 5709 5717 5723 5731 5740 5743 5748 5752 5753 5753 5755 5751 5750 5746 5754
5644 5642 5640 5637 5635 5636 5637 5636 5637 5639 5638 5639 5642 5643 5645 5648 5653 5653 5653 5657 5663 5671 5677 5682 5688 5695 5701 5703 5706 5712 5716 5729 5733 5737 5738 5744 5745 5746 5746 5751 5753 5750 5751
5633 5628 5624 5623 5622 5621 5624 5625 5628 5630 5630 5631 5635 5640 5641 5641 5645 5642 5640 5650 5655 5663 5671 5679 5687 5691 5694 5697 5703 5710 5722 5725 5727 5728 5729 5735 5741 5743 5747 5752 5755 5759 5754
5622 5619 5616 5613 5614 5614 5616 5618 5620 5623 5624 5627 5630 5633 5636 5638 5637 5638 5638 5642 5648 5654 5662 5671 5681 5686 5690 5693 5698 5710 5715 5712 5713 5717 5723 5730 5737 5741 5748 5748 5753 5756 5758
5613 5612 5610 5608 5609 5608 5609 5612 5614 5616 5619 5621 5622 5626 5630 5634 5635 5637 5638 5640 5645 5651 5660 5667 5673 5677 5682 5687 5694 5705 5704 5704 5708 5711 5720 5727 5731 5732 5735 5736 5743 5744 5745
5608 5607 5605 5604 5604 5604 5605 5607 5610 5612 5614 5614 5617 5621 5625 5628 5631 5635 5636 5639 5644 5651 5657 5665 5671 5677 5683 5691 5698 5700 5703 5705 5708 5710 5715 5719 5719 5718 5723 5729 5729 5728 5726
5605 5603 5601 5600 5598 5599 5601 5602 5605 5609 5609 5610 5615 5615 5616 5624 5630 5626 5625 5631 5633 5640 5643 5662 5671 5677 5684 5690 5695 5702 5703 5702 5702 5707 5710 5712 5710 5709 5710 5711 5715 5717 5721
5601 5599 5595 5592 5593 5593 5595 5600 5603 5603 5605 5608 5609 5611 5616 5618 5622 5623 5624 5624 5624 5630 5643 5658 5669 5674 5679 5685 5690 5694 5696 5695 5699 5703 5707 5706 5706 5705 5699 5703 5712 5711 5721
5597 5595 5592 5590 5590 5590 5591 5591 5595 5606 5609 5608 5613 5611 5611 5616 5619 5622 5624 5623 5628 5634 5643 5650 5660 5668 5672 5679 5682 5685 5684 5688 5694 5696 5698 5699 5703 5702 5700 5708 5720 5724 5703
5595 5594 5591 5590 5590 5591 5589 5589 5595 5599 5606 5614 5618 5614 5615 5615 5618 5621 5621 5627 5639 5639 5641 5645 5652 5652 5656 5666 5672 5673 5675 5678 5682 5687 5692 5699 5703 5708 5709 5697 5697 5693 5688
5593 5592 5591 5592 5593 5593 5593 5595 5598 5602 5606 5611 5621 5620 5618 5614 5617 5619 5621 5632 5634 5638 5639 5638 5636 5639 5647 5651 5657 5662 5664 5667 5670 5676 5681 5684 5689 5689 5687 5683 5683 5680 5678
5588 5588 5589 5591 5593 5593 5594 5597 5598 5600 5603 5610 5615 5618 5617 5617 5623 5626 5629 5631 5634 5632 5632 5634 5634 5634 5637 5641 5645 5647 5652 5656 5659 5662 5666 5669 5670 5671 5672 5672 5671 5670 5669
5583 5585 5586 5590 5591 5593 5595 5596 5598 5600 5604 5608 5610 5615 5614 5618 5620 5620 5622 5626 5629 5629 5628 5628 5629 5630 5635 5638 5637 5637 5639 5644 5648 5649 5650 5654 5655 5653 5655 5655 5654 5653 5653
5576 5577 5580 5582 5585 5587 5590 5594 5595 5594 5599 5603 5606 5608 5605 5614 5614 5615 5617 5621 5622 5622 5624 5624 5625 5624 5626 5628 5631 5633 5635 5635 5637 5641 5640 5641 5639 5639 5638 5638 5639 5638 5638
5565 5568 5569 5571 5574 5574 5580 5581 5582 5584 5587 5591 5593 5597 5599 5602 5604 5608 5610 5613 5617 5616 5616 5617 5617 5621 5623 5625 5626 5627 5628 5628 5628 5629 5628 5630 5629 5630 5629 5628 5628 5625 5626
5547 5549 5553 5556 5558 5563 5563 5567 5566 5568 5569 5578 5584 5576 5577 5582 5590 5594 5597 5602 5605 5602 5605 5607 5607 5607 5612 5616 5616 5618 5620 5619 5618 5618 5617 5618 5619 5619 5621 5620 5620 5620 5619
5529 5530 5534 5538 5542 5545 5550 5553 5555 5555 5558 5567 5573 5564 5562 5567 5573 5577 5579 5583 5585 5584 5586 5588 5589 5590 5594 5596 5598 5602 5604 5610 5609 5611 5614 5614 5612 5611 5610 5609 5607 5606 5604
5506 5509 5513 5520 5523 5529 5534 5537 5541 5543 5545 5546 5550 5545 5549 5551 5555 5560 5562 5564 5569 5569 5571 5571 5571 5573 5578 5579 5580 5585 5588 5597 5600 5599 5605 5605 5605 5604 5604 5603 5602 5602 5601